Regional Weather Roundup
Issued by NWS

Home | Current Version | Previous Version | Text Only | Print | Product List | Glossary On
Versions: 1 2 3 4 5 6 7 8 9 10 11 12 13 14 15 16 17 18 19 20 21 22 23 24 25 26 27 28 29 30 31 32 33 34 35 36 37 38 39 40 41 42 43 44 45 46 47 48 49 50
000
ASUS44 KMEG 280710
RWRTN
TENNESSEE HOURLY STATE WEATHER ROUNDUP
NATIONAL WEATHER SERVICE MEMPHIS TN
100 AM CST SUN DEC 28 2014

TNZ002-004-019-021-049-052-054-088>092-280800-
WEST TENNESSEE

CITY           SKY/WX    TMP DP  RH WIND       PRES   REMARKS
MEMPHIS INTL   LGT RAIN  46  43  89 N12       30.12S
NWS MEMPHIS      N/A     45 N/A N/A MISG        N/A
JACKSON        LGT RAIN  47  45  93 NW12      30.09S FOG
DYERSBURG      CLOUDY    41  30  65 N13G21    30.16S
UNION CITY     CLOUDY    39  37  93 N15       30.13S WCI  31
PARIS          CLOUDY    41  39  93 N9        30.09F
HUNTINGDON     CLOUDY    43  42  96 NW8       30.10S
LEXINGTON      CLOUDY    48  46  93 E7        30.04F
SAVANNAH       CLOUDY    50  50 100 N6        30.06F
$$

TNZ008-025-027-028-033-062-065-066-280800-
NORTH MIDDLE TENNESSEE

CITY           SKY/WX    TMP DP  RH WIND       PRES   REMARKS
NASHVILLE      CLOUDY    50  49  96 CALM      30.08F FOG
CLARKSVILLE    LGT RAIN  46  45  96 CALM      30.08F
SMYRNA         CLOUDY    48  48 100 CALM      30.09F FOG
COOKEVILLE     CLOUDY    48  48 100 CALM      30.06F
CROSSVILLE     CLOUDY    51  48  89 VRB3      30.06F
$$

TNZ061-075-076-078-094-096-097-280800-
SOUTH MIDDLE TENNESSEE

CITY           SKY/WX    TMP DP  RH WIND       PRES   REMARKS
FAYETTEVILLE   CLOUDY    50  48  93 MISG      30.05F
TULLAHOMA      CLOUDY    52  50  93 N6        30.06F
WINCHESTER     CLOUDY    55  54  94 SE8       30.05F
MCMINNVILLE    CLOUDY    52  52 100 CALM      30.06S
COLUMBIA       CLOUDY   N/A N/A N/A CALM      30.06F
SHELBYVILLE    CLOUDY    52  52 100 N3        30.07F
$$

TNZ017-018-042-046-047-280800-
NORTHEAST TENNESSEE

CITY           SKY/WX    TMP DP  RH WIND       PRES   REMARKS
TRI CITIES     CLOUDY    46  41  82 CALM      30.08F
ELIZABETHTON   CLOUDY    46  36  66 SW7       30.09R
$$

TNZ012-013-036-069-073-074-280800-
CENTRAL EAST TENNESSEE

CITY           SKY/WX    TMP DP  RH WIND       PRES   REMARKS
KNOXVILLE      LGT RAIN  48  43  82 NW6       30.07F
OAK RIDGE      CLOUDY    49  46  90 VRB3      30.10F
GATLINBURG     CLOUDY    45  39  81 E5        30.06F
MORRISTOWN     CLOUDY    46  45  93 CALM      30.08F
$$

TNZ083-085-099-280800-
SOUTHEAST TENNESSEE

CITY           SKY/WX    TMP DP  RH WIND       PRES   REMARKS
CHATTANOOGA    LGT RAIN  52  50  93 S6        30.10F
$$

SKY/WX REPORTED AS FAIR MEANS FEW OR NO CLOUDS BELOW
12 THOUSAND FEET.



USA.gov is the U.S. government's official web portal to all federal, state and local government web resources and services.